Terug naar catalogus

STARLINK-36291

ActiefCommunicatieVLEO
NORAD 67195·PAYLOAD·🇺🇸 United States

Gelanceerd Dec 17, 2025 vanaf Vandenberg Space Force Base

Loading…

Volgende Passages (komende 24 uur)

TLE

VersSource: CelesTrak SupGP

Epoch: Sep 15, 2026, 03:04 UTC

1 67195C 25304D   26258.12826389 -.00041857  00000+0 -35084-2 0  2580
2 67195  70.0009  57.0164 0002702 270.4910 161.3495 14.98345682    13

Volg STARLINK-36291 in realtime met AllMySat

Download on the App Store